Date,TemperatureHighF,TemperatureAvgF,TemperatureLowF,DewpointHighF,DewpointAvgF,DewpointLowF,HumidityHigh,HumidityAvg,HumidityLow,PressureMaxIn,PressureMinIn,WindSpeedMaxMPH,WindSpeedAvgMPH,GustSpeedMaxMPH,PrecipitationSumIn
2013-3-1,60,54,50,42,32,28,69,43,35,0.00,40.00,0,0,0,0.08
2013-3-2,62,49,36,34,30,23,70,49,34,0.00,40.00,0,0,0,0.48
2013-3-3,63,41,30,44,25,15,78,55,34,0.00,40.00,2,1,6,0.00
2013-3-4,68,41,26,38,21,10,82,46,33,0.00,40.00,2,0,6,0.00
2013-3-5,57,47,41,29,22,18,44,38,35,0.00,40.00,2,0,9,0.00
2013-3-6,46,41,37,32,26,20,71,56,42,0.00,40.00,0,0,4,0.48
2013-3-7,56,43,36,36,30,24,72,61,36,0.00,40.00,0,0,4,0.36
2013-3-8,70,42,32,39,26,18,77,55,33,0.00,40.00,1,0,5,0.00
2013-3-9,72,43,31,42,25,16,78,52,32,0.00,40.00,1,1,0,0.00
2013-3-10,44,44,43,25,25,25,48,48,47,0.00,40.00,1,1,0,0.00
2013-3-11,58,47,38,34,28,24,68,47,35,0.00,40.00,1,0,4,0.04
2013-3-12,57,53,47,39,29,27,67,40,35,0.00,40.00,4,3,13,0.00
2013-3-13,55,52,48,39,36,31,69,56,40,0.00,40.00,3,3,10,0.12
2013-3-14,56,50,47,44,34,25,75,56,36,0.00,40.00,3,3,0,0.04
2013-3-15,67,54,48,37,30,26,62,41,33,0.00,40.00,3,3,0,0.00
2013-3-16,57,48,40,30,24,18,43,38,35,0.00,40.00,3,3,0,0.08
2013-3-17,62,43,34,33,21,15,56,41,34,0.00,40.00,3,3,0,0.04
2013-3-18,63,44,34,34,21,16,51,40,34,0.00,40.00,3,3,0,0.08
2013-3-19,64,43,31,35,24,16,70,49,33,0.00,40.00,3,3,0,0.24
2013-3-20,60,47,37,42,28,16,75,50,35,0.00,40.00,3,3,10,0.64
2013-3-21,57,41,33,30,20,16,69,44,35,0.00,40.00,3,3,0,0.00
2013-3-22,60,39,29,32,21,13,74,50,35,0.00,40.00,3,3,0,0.00
2013-3-23,61,39,29,33,20,12,69,49,35,0.00,40.00,3,3,0,0.00
2013-3-24,63,41,27,34,21,11,72,45,34,0.00,40.00,3,3,0,0.00
2013-3-25,76,47,29,43,23,11,53,39,31,0.00,40.00,3,3,0,0.00